Location: Aldenham
(51.6667°N, 0.3500°W)
Time: 17:25:48
(UTC+00:00)

Vanguard 2 Rocket - Pass Details

Date: 22 February 2026
Orbit: 553 x 3286 km, 32.9° (Epoch: 11 March)

Event Time Altitude Azimuth Distance (km) Brightness Sun altitude
Rises 11:20:46 0° 227° (SW) 7,163 11.8 27.1°
Reaches altitude 10° 11:26:14 10° 219° (SW) 6,222 11.8 27.4°
Maximum altitude 11:42:35 34° 165° (SSE) 4,207 12.9 27.9°
Drops below altitude 10° 11:55:39 10° 108° (ESE) 5,004 11.1 28.1°
Sets 11:59:25 0° 100° (E) 5,661 11.1 28.2°
